Temperature
4 5 5 5 6 6 5 5 5 5 5 7 6 6 7 7 8 7 7 7 6 6 6 5 5 5 4 4 3 3 3 2 2 2 2 1 1 1 1 1 1 1 1 1
4 5 5 5 5 5 6 6 6 6 6 7 7 7 7 7 7 7 7 7 7 6 6 5 5 5 4 4 3 3 2 2 2 2 1 1 1 1 1 1 1 0 0 0
3 4 4 4 5 5 5 5 6 6 7 6 6 6 7 8 8 7 7 7 7 6 6 5 5 4 4 3 3 3 2 2 1 1 1 1 1 1 0 0 0 -0 -0 -0
3 3 4 7 7 6 6 6 6 6 6 6 6 8 8 8 8 8 8 7 7 6 6 5 5 4 4 3 3 2 2 2 1 1 1 0 0 0 -0 -0 -0 -1 -1 -1
3 3 4 6 6 7 6 6 6 6 6 7 7 7 7 8 8 8 7 7 6 6 5 5 4 4 3 3 3 2 2 1 1 1 0 0 -0 -0 -1 -1 -1 -1 -1 -1
3 4 5 7 7 8 7 6 7 6 6 6 6 4 6 8 8 7 7 7 6 6 5 5 4 4 3 3 2 2 2 1 1 0 -0 -0 -1 -1 -1 -1 -1 -2 -2 -2
3 3 4 5 7 7 7 7 8 8 8 7 6 7 8 8 7 7 6 6 6 5 5 4 4 3 3 3 2 2 1 1 0 0 -0 -1 -1 -1 -2 -2 -2 -2 -2 -2
3 3 4 6 5 6 7 8 9 8 8 8 8 8 7 7 7 6 6 5 5 5 4 4 3 3 3 2 2 1 1 1 0 -0 -1 -1 -1 -2 -2 -2 -2 -2 -2 -3
3 5 6 7 7 9 9 8 8 8 8 8 7 7 7 6 6 6 5 5 4 4 4 3 3 3 2 2 1 1 1 0 -0 -1 -1 -1 -2 -2 -2 -2 -3 -3 -3 -3
2 4 5 7 8 8 8 8 8 8 7 7 7 7 6 6 6 5 5 4 4 4 3 3 3 2 2 1 1 1 0 -0 -1 -1 -1 -2 -2 -2 -3 -3 -3 -4 -4 -4
3 4 5 7 8 8 8 8 7 7 7 7 6 6 6 5 5 5 4 4 3 3 3 3 2 2 1 1 1 0 -0 -1 -1 -1 -2 -2 -2 -3 -3 -4 -4 -5 -5 -5
5 6 5 6 8 7 7 7 7 6 6 6 6 6 5 5 5 4 4 4 3 3 3 2 2 1 1 1 0 -0 -1 -1 -1 -2 -2 -2 -3 -3 -3 -4 -4 -5 -5 -6
6 6 6 6 6 6 6 6 6 6 6 5 5 5 5 4 4 4 4 3 3 3 2 2 1 1 1 0 -0 -0 -1 -1 -2 -2 -2 -3 -3 -3 -4 -4 -4 -5 -5 -6
5 5 5 5 5 5 5 5 5 5 5 5 5 5 4 4 4 3 3 3 2 2 2 1 1 1 0 -0 -1 -1 -1 -2 -2 -3 -3 -3 -4 -4 -4 -5 -5 -5 -5 -6
4 4 4 4 4 4 4 4 4 4 4 4 4 4 4 3 3 3 3 2 2 2 1 1 1 1 0 -0 -1 -1 -2 -2 -3 -3 -3 -4 -4 -5 -5 -5 -6 -6 -5 -6
4 4 4 4 4 4 4 4 4 4 4 4 4 3 3 3 3 3 2 2 2 2 1 1 1 0 -0 -1 -1 -2 -2 -3 -3 -3 -4 -4 -5 -5 -5 -6 -6 -6 -6 -6
3 3 3 3 4 4 3 3 3 3 3 3 3 3 3 2 2 2 2 2 1 1 1 1 0 -0 -1 -1 -2 -2 -2 -3 -3 -4 -4 -5 -5 -5 -6 -6 -6 -6 -7 -7
3 3 3 3 3 3 3 3 3 3 3 3 3 3 2 2 2 2 2 1 1 1 1 0 -0 -1 -1 -2 -2 -2 -3 -3 -4 -4 -5 -5 -5 -6 -6 -6 -7 -7 -7 -7
4 4 4 3 3 3 3 3 3 3 3 3 3 2 2 2 2 2 1 1 1 1 1 -0 -1 -1 -1 -2 -2 -3 -3 -4 -4 -5 -5 -5 -6 -6 -6 -7 -7 -7 -7 -8
4 4 4 4 3 3 3 3 3 3 3 3 2 2 2 2 1 1 1 1 1 0 -0 -1 -1 -1 -2 -2 -3 -3 -4 -4 -4 -5 -5 -6 -6 -6 -7 -7 -7 -7 -8 -8
4 4 4 4 3 3 3 3 3 3 3 2 2 2 2 1 1 1 0 0 1 -0 -1 -1 -2 -2 -2 -3 -3 -4 -4 -4 -5 -5 -6 -6 -6 -7 -7 -7 -8 -8 -8 -8
4 4 3 3 3 3 3 3 3 2 2 2 2 1 1 1 1 0 0 0 0 -1 -1 -2 -2 -2 -3 -3 -4 -4 -4 -5 -5 -6 -6 -6 -7 -7 -7 -7 -8 -8 -8 -9
3 3 3 3 3 3 3 3 2 2 2 2 2 1 1 1 0 0 0 0 -1 -1 -1 -2 -2 -3 -3 -4 -4 -4 -5 -5 -5 -6 -6 -7 -7 -7 -7 -8 -8 -8 -8 -9
3 3 2 2 2 2 2 2 2 2 2 2 1 1 1 1 0 0 -0 -0 -1 -1 -2 -2 -3 -3 -3 -4 -4 -5 -5 -5 -6 -6 -6 -7 -7 -7 -8 -8 -8 -8 -9 -9
2 2 2 2 2 2 2 2 2 2 1 1 1 1 1 0 0 -0 -0 -1 -1 -2 -2 -3 -3 -3 -4 -4 -4 -5 -5 -6 -6 -6 -7 -7 -7 -8 -8 -8 -8 -9 -9 -9
1 1 1 1 1 1 1 1 1 1 1 1 1 1 0 -0 -0 -1 -1 -1 -2 -2 -3 -3 -3 -4 -4 -4 -5 -5 -6 -6 -6 -7 -7 -7 -8 -8 -8 -8 -9 -9 -9 -9
0 1 1 1 1 1 1 1 1 1 0 0 0 0 -0 -1 -1 -1 -1 -2 -2 -3 -3 -3 -4 -4 -4 -5 -5 -5 -6 -6 -6 -7 -7 -7 -8 -8 -8 -8 -9 -9 -9 -9
Wind_Speed
8 9 7 10 12 10 12 11 10 10 11 15 10 10 9 8 7 7 7 7 7 7 7 6 5 4 4 3 2 2 1 1 3 3 3 4 4 4 4 4 5 4 5 5
6 7 8 13 15 15 15 14 16 16 18 14 10 7 8 8 8 9 9 9 8 8 7 7 6 5 4 4 3 2 2 2 3 3 3 3 4 4 4 4 4 4 4 5
5 7 8 10 11 12 8 9 10 16 14 8 7 9 9 9 9 9 10 9 8 8 8 8 7 6 6 5 3 2 2 2 3 2 3 3 4 4 4 4 4 4 4 4
4 6 7 8 3 7 8 10 12 11 9 8 9 8 7 7 9 9 9 8 8 7 7 6 5 5 5 4 3 3 3 3 3 2 3 3 3 4 4 3 4 4 4 5
2 5 10 10 6 5 6 8 9 12 11 8 4 3 5 7 7 8 8 7 7 7 6 5 5 5 4 3 3 3 3 3 3 3 3 3 3 4 3 3 4 4 4 5
3 4 7 7 2 1 2 7 6 6 7 5 4 3 7 5 5 6 5 5 6 5 4 5 5 5 5 4 4 4 4 4 3 3 3 3 4 4 3 3 4 4 5 5
7 7 10 9 3 3 2 6 3 4 5 6 8 8 5 3 4 5 4 5 5 5 5 6 5 5 5 5 5 5 4 3 2 2 3 3 3 2 3 3 4 4 5 5
7 8 11 6 7 8 9 4 4 4 5 7 8 6 5 5 6 6 5 5 5 5 5 4 5 6 6 6 5 3 3 2 2 2 2 2 2 3 3 3 4 4 4 5
11 12 7 6 10 8 5 5 6 6 7 7 7 7 6 6 7 7 7 6 5 6 6 5 5 6 7 6 4 3 3 2 2 2 2 2 2 2 3 2 3 4 4 5
8 13 12 11 10 10 8 9 9 8 8 7 8 8 8 7 7 7 7 7 6 6 6 6 6 6 6 5 4 4 3 3 2 2 2 2 2 2 2 3 3 4 5 5
10 11 10 9 10 10 9 8 8 8 7 9 8 8 8 8 8 7 7 6 6 8 8 8 6 6 5 5 5 4 4 3 2 2 2 2 2 2 3 3 4 5 4 4
12 11 8 8 7 7 8 9 10 9 8 7 8 9 8 8 7 7 7 7 7 8 8 7 6 6 5 5 6 5 4 3 2 2 2 2 2 4 5 6 8 9 8 8
15 13 11 12 12 10 9 10 10 9 9 8 7 7 7 7 6 6 7 8 9 9 8 7 6 6 6 6 6 6 5 4 3 2 2 2 2 3 4 6 7 8 9 10
12 10 12 12 12 11 10 9 8 8 8 7 6 6 6 6 6 7 8 9 8 7 7 7 7 7 6 6 6 6 5 4 4 3 2 2 2 3 3 4 6 5 7 10
12 11 13 13 12 10 8 6 6 7 7 6 5 6 6 7 8 8 7 6 6 6 7 7 7 7 6 6 6 6 4 3 3 3 3 3 3 3 3 4 5 6 6 7
10 10 10 11 13 11 8 8 9 9 8 7 7 7 7 7 7 6 6 6 7 8 8 8 8 7 6 7 6 5 4 6 4 3 3 3 3 3 3 4 5 5 6 6
11 11 10 10 10 10 9 9 9 9 8 8 9 7 6 5 5 6 6 7 7 7 7 8 7 6 6 7 7 5 4 4 5 3 3 3 3 3 4 4 4 5 6 7
11 12 11 10 10 10 10 8 8 8 8 8 6 6 6 7 8 8 7 5 5 5 6 7 6 6 7 7 6 5 4 4 3 4 3 3 4 3 4 4 5 6 6 7
8 10 10 10 9 8 8 8 8 7 7 6 6 7 8 8 8 7 5 6 7 8 7 7 9 8 7 8 7 5 5 5 4 4 4 5 4 3 4 4 5 5 6 6
7 7 8 8 7 7 8 8 7 7 6 6 6 7 7 7 7 6 6 7 8 7 5 6 7 6 7 7 8 5 5 5 5 4 4 4 4 4 4 5 5 5 5 6
8 8 8 8 8 8 7 7 6 7 6 6 7 8 8 7 6 6 6 7 7 6 7 9 7 6 6 7 8 5 6 5 5 5 5 4 4 5 5 5 5 5 5 6
7 7 8 7 7 8 7 6 6 7 7 6 7 7 7 7 7 6 7 7 6 8 7 5 6 8 9 9 6 6 6 6 5 5 5 5 5 5 5 5 5 5 5 6
8 8 8 8 8 8 7 6 7 7 8 8 8 8 9 8 6 6 7 6 5 9 7 6 9 12 12 7 6 6 6 6 6 5 5 5 5 5 5 5 5 5 6 6
9 9 9 8 6 6 9 9 7 6 7 8 8 8 8 6 6 7 6 6 9 10 7 9 13 13 12 6 6 6 6 6 6 5 5 5 5 4 5 5 5 5 6 7
9 9 8 8 8 8 9 8 7 7 6 6 7 8 7 7 7 6 5 6 10 10 6 9 13 12 8 5 6 6 6 6 6 5 5 5 5 5 5 5 5 5 6 6
9 9 9 9 9 8 6 6 6 6 6 6 6 6 5 5 6 5 5 6 8 9 7 5 6 8 6 6 7 7 6 6 6 5 5 5 5 5 5 5 6 6 6 6
9 8 7 8 8 7 7 7 8 8 8 8 7 6 5 5 5 6 6 6 6 6 6 5 5 6 6 6 6 6 6 5 5 5 5 5 5 5 5 6 5 5 5 6
Wind_Direction
255 261 252 246 244 225 218 215 225 245 246 258 249 244 244 242 240 237 237 230 223 220 221 219 219 220 219 227 233 234 252 292 300 308 319 328 334 336 337 342 344 338 340 340
284 270 268 267 254 236 234 233 239 255 267 263 256 241 239 239 234 233 235 232 225 220 215 215 215 214 214 221 223 216 235 269 286 304 320 325 325 334 340 338 333 340 341 337
285 311 319 275 243 212 209 211 209 236 247 253 256 245 236 233 232 233 234 230 222 218 216 217 214 206 208 214 211 207 231 264 281 295 310 312 320 336 337 333 334 333 328 330
291 335 269 248 242 194 214 239 223 233 245 236 236 243 240 225 221 229 229 226 221 215 214 214 207 202 200 196 198 211 232 257 275 286 294 308 322 325 321 319 323 321 321 321
257 285 281 290 269 199 205 268 233 231 246 250 256 301 281 237 220 225 227 222 216 208 202 198 198 195 183 191 201 214 236 252 261 267 283 303 310 308 308 316 319 316 316 320
211 250 258 257 283 146 90 282 260 209 230 232 156 248 264 238 223 230 230 214 203 191 184 190 199 180 175 195 204 225 237 245 250 253 266 283 290 296 304 308 310 318 320 318
223 243 266 259 236 128 195 256 281 213 218 202 203 226 246 223 224 223 222 213 193 184 190 201 191 174 184 200 220 231 232 238 249 257 265 274 286 296 302 309 315 316 312 314
196 219 252 232 158 192 223 251 252 240 233 225 235 252 250 236 233 226 222 212 194 191 203 202 187 180 194 217 227 217 210 224 245 261 276 297 294 301 303 305 310 309 309 312
202 221 241 209 209 231 226 241 249 245 247 238 243 249 245 239 235 229 221 213 202 198 204 208 199 191 205 223 210 195 199 220 243 264 276 284 277 288 302 302 302 307 308 310
247 256 255 254 252 259 250 245 252 250 248 237 241 245 245 242 237 230 221 215 204 196 206 218 214 211 214 210 188 181 198 221 235 246 275 289 292 286 288 293 296 304 307 308
254 269 282 266 245 248 254 257 260 259 244 236 235 243 241 242 239 232 225 217 204 204 213 218 212 216 214 197 177 183 199 214 228 238 247 271 283 273 281 265 270 294 291 293
249 247 243 263 262 256 260 261 258 257 256 243 230 239 242 242 238 230 225 216 213 214 216 216 206 211 208 192 181 184 201 211 218 227 245 261 282 298 300 301 309 311 311 309
252 266 265 273 277 269 262 260 255 247 243 246 243 235 235 240 237 230 226 217 217 218 216 209 204 210 207 191 183 186 198 207 212 219 232 257 274 289 305 314 315 317 318 318
257 268 273 270 272 273 267 265 260 253 247 241 242 240 234 237 240 233 229 224 218 213 209 205 205 215 207 187 185 191 198 211 212 217 227 242 259 272 283 299 310 309 314 318
259 247 256 272 277 277 271 266 262 261 256 255 244 237 232 233 237 238 233 216 202 205 210 206 210 218 198 184 187 192 196 205 210 214 226 239 254 267 275 285 292 301 307 316
275 274 268 268 272 273 269 259 256 257 254 250 247 242 237 236 240 241 224 195 196 213 213 207 215 214 191 184 188 192 202 214 212 213 223 238 251 264 274 283 291 296 302 309
272 278 275 274 274 274 266 255 250 253 253 249 247 245 242 238 239 236 227 213 212 217 212 210 214 201 189 186 186 193 197 211 219 224 225 235 247 258 270 278 284 291 295 304
250 256 261 264 271 276 276 267 257 254 250 249 248 239 230 226 230 234 226 210 209 226 226 217 207 193 191 189 189 190 191 198 205 219 229 236 248 253 265 274 282 290 297 304
269 268 270 267 263 262 265 266 262 257 255 247 238 237 236 234 233 229 209 200 212 232 233 212 202 194 194 198 190 186 189 198 211 221 228 245 256 255 261 269 277 284 292 298
284 281 276 273 269 259 262 264 261 259 253 237 236 241 245 242 229 216 209 221 227 228 209 197 195 195 198 200 194 185 193 204 213 221 226 232 243 253 257 266 274 281 287 291
290 286 281 280 280 272 263 260 258 257 255 235 230 238 243 242 224 209 213 239 239 207 200 203 200 200 198 199 197 190 197 206 213 219 224 232 242 251 255 262 271 279 284 288
284 281 280 279 280 282 276 261 252 254 255 246 241 238 238 239 229 224 227 232 227 200 195 199 199 204 202 201 193 194 200 206 213 217 223 230 238 247 255 261 267 275 279 283
273 270 271 270 269 273 278 269 255 249 248 245 239 235 233 234 222 222 244 230 208 206 199 202 207 209 209 200 192 197 202 207 212 217 223 227 233 242 251 259 264 270 276 281
272 269 266 264 261 266 273 270 259 251 248 248 242 234 231 236 240 232 232 217 206 208 207 210 211 212 208 194 193 199 204 209 214 218 222 226 231 238 246 255 262 268 271 276
266 265 262 261 262 263 261 264 264 259 252 253 249 239 230 226 232 234 215 211 213 213 212 214 213 211 201 191 197 203 206 211 215 215 216 223 230 237 245 250 255 263 269 272
264 263 261 254 254 259 257 252 255 256 250 256 258 244 233 227 225 222 215 212 212 213 209 207 205 206 197 197 202 205 208 218 229 224 219 224 230 236 245 250 255 260 266 271
264 262 263 265 260 248 243 241 247 251 244 242 253 246 228 222 217 216 215 213 210 209 204 199 197 197 196 198 202 205 207 209 212 216 219 223 229 235 242 248 255 261 267 272
Height
1528 1524 1523 1520 1517 1517 1518 1517 1517 1505 1500 1489 1488 1488 1487 1486 1485 1485 1485 1484 1484 1483 1483 1483 1482 1481 1480 1479 1478 1476 1474 1472 1470 1467 1465 1463 1460 1458 1455 1453 1450 1448 1446 1444
1526 1519 1518 1514 1507 1508 1507 1506 1502 1499 1492 1482 1482 1482 1482 1481 1481 1481 1480 1480 1480 1479 1479 1479 1478 1478 1477 1476 1475 1473 1471 1469 1467 1465 1463 1460 1458 1456 1453 1451 1448 1446 1444 1442
1530 1522 1517 1509 1495 1496 1497 1493 1493 1492 1483 1478 1480 1478 1477 1477 1477 1476 1476 1476 1475 1475 1475 1475 1474 1474 1473 1472 1471 1470 1468 1466 1464 1462 1460 1458 1456 1453 1451 1448 1446 1444 1441 1439
1531 1526 1519 1494 1485 1486 1488 1484 1482 1479 1475 1475 1474 1473 1473 1473 1473 1472 1472 1472 1472 1472 1471 1471 1471 1470 1470 1469 1468 1466 1465 1463 1461 1459 1457 1455 1453 1450 1448 1446 1443 1441 1439 1436
1531 1529 1513 1491 1483 1482 1484 1480 1473 1474 1472 1472 1472 1472 1470 1469 1469 1469 1469 1468 1468 1468 1468 1467 1467 1466 1466 1465 1464 1463 1461 1460 1458 1456 1454 1452 1450 1448 1445 1443 1441 1438 1436 1434
1529 1525 1511 1486 1480 1479 1482 1480 1469 1469 1469 1469 1471 1474 1468 1465 1465 1465 1465 1464 1464 1464 1463 1463 1463 1462 1462 1461 1460 1459 1458 1456 1455 1453 1451 1449 1447 1445 1443 1440 1438 1436 1433 1431
1524 1520 1502 1482 1479 1480 1486 1476 1468 1466 1466 1466 1466 1465 1463 1462 1462 1462 1461 1461 1460 1460 1459 1459 1459 1458 1457 1457 1456 1455 1454 1453 1451 1449 1448 1446 1444 1442 1440 1437 1435 1433 1430 1428
1517 1515 1498 1475 1477 1478 1472 1467 1465 1464 1464 1463 1462 1461 1460 1459 1458 1458 1457 1457 1456 1456 1455 1455 1455 1454 1453 1452 1452 1451 1450 1449 1447 1446 1444 1442 1441 1439 1437 1434 1432 1429 1427 1424
1497 1486 1472 1469 1468 1466 1465 1464 1462 1461 1460 1459 1458 1456 1455 1454 1454 1453 1453 1452 1452 1451 1451 1451 1450 1449 1449 1448 1448 1447 1446 1445 1444 1442 1441 1439 1437 1435 1433 1431 1428 1426 1423 1420
1486 1472 1467 1465 1464 1463 1462 1460 1459 1458 1456 1455 1453 1452 1451 1450 1449 1448 1448 1447 1447 1446 1446 1445 1445 1445 1444 1444 1443 1442 1442 1441 1440 1438 1437 1435 1434 1432 1430 1427 1425 1422 1420 1417
1477 1466 1462 1458 1457 1457 1457 1456 1454 1453 1451 1450 1448 1447 1446 1444 1444 1443 1442 1442 1441 1441 1440 1440 1440 1440 1440 1439 1439 1438 1437 1437 1436 1434 1433 1432 1430 1428 1426 1424 1422 1420 1417 1414
1466 1459 1458 1454 1454 1453 1452 1450 1449 1447 1445 1444 1443 1442 1441 1439 1439 1438 1437 1436 1436 1435 1435 1435 1435 1435 1435 1435 1434 1434 1433 1432 1431 1430 1429 1428 1426 1425 1423 1421 1419 1416 1414 1412
1456 1454 1453 1450 1448 1447 1445 1443 1442 1441 1439 1438 1437 1436 1435 1434 1433 1432 1431 1431 1431 1430 1430 1430 1430 1430 1430 1430 1429 1429 1428 1428 1427 1426 1425 1424 1422 1421 1419 1418 1416 1413 1410 1408
1451 1450 1446 1443 1442 1440 1438 1437 1435 1434 1433 1432 1431 1430 1429 1428 1427 1426 1426 1426 1426 1425 1425 1425 1425 1425 1425 1425 1425 1424 1424 1424 1423 1422 1421 1420 1418 1417 1415 1413 1411 1408 1407 1404
1444 1444 1441 1437 1435 1433 1432 1430 1429 1427 1426 1426 1425 1424 1423 1422 1421 1420 1420 1420 1420 1420 1420 1420 1420 1420 1420 1420 1420 1420 1420 1419 1419 1418 1417 1416 1414 1413 1411 1409 1407 1404 1402 1400
1437 1435 1433 1431 1428 1426 1425 1424 1422 1421 1420 1419 1419 1418 1417 1416 1415 1415 1415 1414 1414 1414 1414 1415 1415 1415 1415 1415 1415 1415 1415 1415 1414 1414 1413 1412 1410 1409 1407 1405 1403 1400 1398 1395
1432 1428 1425 1424 1422 1421 1419 1418 1417 1415 1414 1414 1413 1412 1412 1411 1410 1409 1409 1409 1409 1409 1410 1410 1410 1410 1410 1410 1410 1410 1410 1410 1409 1409 1408 1407 1406 1404 1403 1401 1399 1396 1394 1392
1426 1424 1422 1420 1418 1416 1414 1413 1412 1410 1409 1408 1408 1407 1406 1405 1404 1404 1404 1404 1404 1404 1404 1405 1405 1404 1404 1404 1404 1404 1404 1404 1404 1404 1403 1402 1401 1400 1398 1397 1394 1392 1390 1387
1421 1419 1417 1415 1413 1412 1410 1408 1407 1405 1404 1404 1402 1401 1401 1400 1400 1399 1399 1399 1398 1398 1399 1399 1399 1399 1399 1399 1399 1399 1399 1399 1399 1399 1398 1398 1397 1395 1394 1392 1390 1388 1385 1383
1417 1415 1413 1411 1409 1408 1405 1404 1402 1401 1399 1398 1397 1396 1395 1395 1395 1394 1394 1393 1393 1393 1394 1394 1394 1394 1394 1394 1394 1394 1394 1394 1394 1394 1394 1393 1392 1391 1389 1387 1385 1383 1381 1379
1414 1412 1410 1408 1406 1404 1402 1400 1397 1396 1395 1393 1392 1391 1390 1390 1389 1389 1388 1387 1387 1388 1388 1388 1388 1388 1389 1389 1389 1389 1389 1389 1389 1389 1389 1388 1387 1386 1384 1383 1381 1379 1377 1374
1411 1409 1406 1404 1402 1400 1398 1395 1393 1391 1390 1388 1387 1386 1385 1384 1383 1383 1382 1382 1382 1382 1382 1382 1383 1383 1383 1384 1384 1384 1384 1384 1384 1384 1383 1383 1382 1381 1380 1378 1376 1374 1372 1370
1407 1405 1402 1400 1398 1395 1393 1391 1389 1387 1385 1383 1381 1380 1379 1378 1378 1377 1376 1376 1376 1376 1376 1376 1377 1377 1378 1378 1378 1379 1379 1379 1379 1379 1378 1378 1377 1376 1375 1373 1372 1370 1367 1365
1402 1400 1397 1395 1392 1389 1387 1385 1384 1382 1380 1378 1376 1375 1374 1373 1372 1371 1371 1371 1371 1370 1370 1371 1371 1371 1372 1372 1373 1373 1373 1373 1373 1373 1373 1373 1372 1371 1370 1368 1367 1365 1363 1361
1395 1392 1390 1388 1386 1383 1381 1379 1377 1375 1374 1372 1370 1369 1368 1367 1366 1366 1365 1365 1364 1364 1364 1365 1365 1366 1366 1366 1367 1367 1368 1368 1368 1368 1368 1367 1367 1366 1365 1364 1362 1360 1358 1356
1387 1384 1382 1380 1378 1376 1374 1372 1370 1368 1367 1365 1363 1363 1362 1361 1360 1359 1359 1358 1358 1358 1358 1359 1359 1360 1360 1361 1361 1362 1363 1363 1363 1363 1363 1362 1362 1361 1360 1359 1358 1356 1354 1352
1378 1375 1373 1371 1369 1368 1367 1365 1363 1361 1360 1358 1357 1356 1355 1355 1354 1353 1352 1352 1352 1351 1352 1353 1354 1354 1355 1355 1356 1357 1357 1358 1358 1358 1358 1358 1357 1356 1356 1354 1353 1351 1349 1347